This demonstration page uses our WeatherBlox Daily Observations layout. Learn more.

Left ArrowRight Arrow

Hourly Observations for June 16, 2022

Temp ( °F °C ) Dew Point ( °F °C ) Humidity (%) Winds ( mph kmh ) Pressure ( in mb ) Visibility ( mi km ) Precip ( " mm )
12:51 am 00:51 Mostly Cloudy 67 19.4 57 13.9 71 71 S 6 9 30.16 1021 10 16 0.00 0.00
1:51 am 01:51 Cloudy 67 19.4 58 14.4 73 73 SW 8 13 30.17 1022 10 16 0.00 0.00
2:51 am 02:51 Mostly Cloudy 66 18.9 57 13.9 73 73 S 7 11 30.15 1021 10 16 0.00 0.00
3:51 am 03:51 Cloudy 67 19.4 58 14.4 73 73 S 5 7 30.16 1021 10 16 0.00 0.00
4:51 am 04:51 Cloudy 67 19.4 58 14.4 73 73 SSE 5 7 30.14 1021 10 16 0.00 0.00
5:51 am 05:51 Cloudy 67 19.4 57 13.9 71 71 S 6 9 30.15 1021 10 16 0.00 0.00
6:51 am 06:51 Cloudy with Light Rain 64 17.8 58 14.4 81 81 NW 7 11 30.25 1024 4 6 0.03 0.76
6:55 am 06:55 Cloudy with Thunderstorms 64 17.8 58 14.4 81 81 NNW 7 11 30.25 1024 4 6 0.00 0.00
7:51 am 07:51 Cloudy with Thunderstorms 63 17.2 59 15 87 87 S 6 9 30.19 1023 4 6 0.15 3.81
8:51 am 08:51 Partly Cloudy 63 17.2 60 15.6 90 90 S 7 11 30.19 1022 10 16 0.03 0.76
9:51 am 09:51 Mostly Sunny 67 19.4 62 16.7 84 84 SSE 8 13 30.17 1022 10 16 0.00 0.00
10:51 am 10:51 Partly Cloudy 68 20 61 16.1 78 78 SSW 12 19 30.14 1021 10 16 0.00 0.00
11:23 am 11:23 Mostly Cloudy 69 20.6 60 15.6 73 73 SSW 16 26 30.15 1021 10 16 0.00 0.00
11:51 am 11:51 Cloudy 72 22.2 62 16.7 71 71 S 12 19 30.13 1020 10 16 0.00 0.00
12:51 pm 12:51 Cloudy 72 22.2 60 15.6 66 66 S 14 22 30.12 1020 10 16 0.00 0.00
1:24 pm 13:24 Cloudy 72 22.2 62 16.7 71 71 S 8 13 30.12 1020 10 16 0.00 0.00
1:31 pm 13:31 Cloudy 71 21.7 62 16.7 73 73 S 10 17 30.11 1020 10 16 0.00 0.00
1:51 pm 13:51 Cloudy 71 21.7 62 16.7 73 73 SSE 12 19 30.09 1019 10 16 0.00 0.00
2:29 pm 14:29 Cloudy 73 22.8 62 16.7 69 69 S 10 17 30.09 1019 10 16 0.00 0.00
2:36 pm 14:36 Cloudy 74 23.3 62 16.7 67 67 S 13 20 30.08 1019 10 16 0.00 0.00
2:51 pm 14:51 Cloudy 74 23.3 62 16.7 67 67 SSE 13 20 30.07 1018 10 16 0.00 0.00
3:51 pm 15:51 Cloudy 73 22.8 62 16.7 69 69 S 13 20 30.04 1017 10 16 0.00 0.00
4:51 pm 16:51 Cloudy 71 21.7 62 16.7 73 73 SSE 13 20 30.01 1016 10 16 0.00 0.00
5:51 pm 17:51 Cloudy 71 21.7 62 16.7 73 73 SSE 9 15 29.98 1015 10 16 0.00 0.00
6:51 pm 18:51 Cloudy 70 21.1 62 16.7 76 76 S 16 26 29.99 1016 10 16 0.00 0.00
7:51 pm 19:51 Cloudy 70 21.1 63 17.2 79 79 SSE 15 24 29.98 1015 10 16 0.00 0.00
8:51 pm 20:51 Cloudy 69 20.6 63 17.2 81 81 S 13 20 29.97 1015 10 16 0.00 0.00
9:51 pm 21:51 Cloudy 69 20.6 63 17.2 81 81 S 16 26 29.92 1013 10 16 0.00 0.00
10:40 pm 22:40 Cloudy 69 20.6 63 17.2 81 81 SSE 10 17 29.94 1014 10 16 0.00 0.00
10:51 pm 22:51 Cloudy 69 20.6 63 17.2 81 81 S 7 11 29.93 1014 10 16 0.00 0.00
11:28 pm 23:28 Mostly Cloudy 69 20.6 63 17.2 81 81 S 7 11 29.92 1013 9 14 0.00 0.00
11:51 pm 23:51 Cloudy 69 20.6 63 17.2 81 81 S 6 9 29.92 1013 10 16 0.00 0.00

Powered by AerisWeather